QPF
0.03 0.04 0.04 0.03 0.03 0.04 0.06 0.07 0.06 0.06 0.06 0.05 0.04 0.05 0.05 0.05 0.06 0.05 0.06 0.07 0.07 0.08 0.08 0.07 0.06 0.05 0.05 0.06 0.06 0.06 0.07 0.08 0.09 0.09 0.08 0.08 0.08 0.08
0.02 0.04 0.03 0.03 0.03 0.04 0.06 0.07 0.07 0.07 0.08 0.06 0.04 0.04 0.05 0.05 0.06 0.05 0.05 0.05 0.06 0.07 0.08 0.08 0.07 0.07 0.07 0.07 0.07 0.07 0.07 0.07 0.08 0.06 0.06 0.06 0.06 0.06
0.02 0.03 0.04 0.03 0.04 0.04 0.04 0.04 0.05 0.06 0.09 0.08 0.06 0.05 0.05 0.03 0.03 0.04 0.03 0.03 0.04 0.06 0.05 0.04 0.04 0.05 0.04 0.05 0.05 0.06 0.07 0.09 0.10 0.09 0.08 0.08 0.08 0.07
0.04 0.03 0.02 0.02 0.02 0.03 0.03 0.04 0.04 0.04 0.06 0.08 0.06 0.05 0.04 0.03 0.04 0.05 0.04 0.04 0.04 0.05 0.06 0.05 0.04 0.04 0.03 0.03 0.03 0.03 0.04 0.05 0.06 0.06 0.07 0.06 0.06 0.07
0.06 0.03 0.02 0.02 0.03 0.03 0.03 0.04 0.04 0.03 0.04 0.05 0.05 0.03 0.03 0.03 0.03 0.03 0.03 0.03 0.04 0.05 0.05 0.05 0.04 0.04 0.03 0.03 0.03 0.03 0.03 0.03 0.03 0.03 0.03 0.04 0.04 0.04
0.04 0.03 0.03 0.03 0.03 0.02 0.03 0.04 0.03 0.02 0.03 0.04 0.04 0.03 0.03 0.04 0.02 0.02 0.02 0.03 0.04 0.04 0.04 0.04 0.04 0.03 0.03 0.03 0.02 0.02 0.02 0.02 0.02 0.02 0.02 0.01 0.02 0.02
0.03 0.03 0.03 0.03 0.03 0.03 0.03 0.02 0.02 0.02 0.03 0.03 0.04 0.03 0.03 0.03 0.02 0.02 0.02 0.03 0.02 0.02 0.02 0.03 0.03 0.03 0.02 0.02 0.02 0.02 0.02 0.01 0.01 0.01 0.01 0.01 0.00 0.00
0.03 0.02 0.03 0.03 0.03 0.03 0.03 0.03 0.03 0.02 0.02 0.02 0.03 0.03 0.02 0.02 0.02 0.02 0.02 0.03 0.03 0.03 0.03 0.03 0.03 0.03 0.03 0.03 0.02 0.02 0.01 0.01 0.00 0.00 0.00 0.00 0.00 0.00
0.02 0.02 0.01 0.01 0.01 0.01 0.01 0.01 0.01 0.01 0.02 0.02 0.02 0.02 0.02 0.02 0.03 0.03 0.03 0.03 0.02 0.02 0.02 0.02 0.03 0.03 0.03 0.03 0.03 0.02 0.01 0.01 0.01 0.00 0.00 0.00 0.00 0.00
0.02 0.02 0.01 0.01 0.01 0.00 0.00 0.00 0.00 0.01 0.01 0.01 0.01 0.01 0.02 0.01 0.01 0.01 0.01 0.01 0.01 0.01 0.02 0.02 0.03 0.03 0.03 0.04 0.03 0.03 0.02 0.02 0.02 0.01 0.01 0.00 0.00 0.00
0.02 0.03 0.03 0.02 0.01 0.01 0.00 0.00 0.00 0.00 0.01 0.00 0.01 0.01 0.01 0.01 0.01 0.01 0.00 0.01 0.02 0.02 0.03 0.04 0.05 0.05 0.05 0.03 0.03 0.03 0.03 0.04 0.04 0.03 0.02 0.01 0.01 0.01
0.01 0.01 0.02 0.02 0.02 0.01 0.01 0.00 0.00 0.00 0.00 0.00 0.00 0.00 0.00 0.00 0.01 0.01 0.01 0.02 0.02 0.03 0.03 0.04 0.06 0.06 0.07 0.06 0.04 0.03 0.03 0.05 0.06 0.05 0.04 0.03 0.03 0.03
0.01 0.02 0.02 0.02 0.02 0.01 0.01 0.01 0.01 0.00 0.00 0.00 0.00 0.00 0.00 0.00 0.00 0.00 0.01 0.01 0.02 0.03 0.03 0.03 0.04 0.05 0.05 0.04 0.03 0.03 0.03 0.04 0.05 0.06 0.05 0.04 0.03 0.03
0.02 0.02 0.02 0.02 0.01 0.01 0.01 0.00 0.00 0.00 0.00 0.00 0.00 0.00 0.00 0.00 0.00 0.00 0.00 0.01 0.01 0.01 0.02 0.02 0.02 0.02 0.02 0.02 0.02 0.02 0.01 0.02 0.03 0.04 0.04 0.04 0.04 0.03
0.04 0.03 0.02 0.02 0.01 0.01 0.00 0.00 0.00 0.00 0.00 0.00 0.00 0.00 0.00 0.00 0.00 0.00 0.00 0.00 0.01 0.01 0.02 0.01 0.01 0.01 0.02 0.02 0.02 0.01 0.01 0.01 0.01 0.02 0.02 0.02 0.02 0.02
0.05 0.04 0.03 0.02 0.01 0.00 0.00 0.00 0.00 0.00 0.00 0.00 0.00 0.00 0.00 0.00 0.00 0.00 0.00 0.00 0.00 0.01 0.01 0.01 0.01 0.01 0.01 0.01 0.01 0.01 0.01 0.01 0.01 0.01 0.01 0.02 0.01 0.01
0.05 0.04 0.02 0.01 0.01 0.00 0.00 0.00 0.00 0.00 0.00 0.00 0.00 0.00 0.00 0.00 0.00 0.00 0.00 0.01 0.01 0.01 0.01 0.01 0.01 0.01 0.01 0.01 0.01 0.00 0.00 0.01 0.01 0.01 0.01 0.01 0.01 0.01
0.04 0.02 0.02 0.01 0.01 0.00 0.00 0.00 0.00 0.00 0.00 0.00 0.00 0.00 0.00 0.00 0.00 0.00 0.00 0.00 0.01 0.01 0.01 0.01 0.01 0.01 0.01 0.01 0.01 0.00 0.00 0.00 0.01 0.01 0.01 0.01 0.01 0.01
0.05 0.03 0.02 0.01 0.01 0.01 0.01 0.00 0.00 0.00 0.00 0.00 0.00 0.00 0.00 0.00 0.00 0.00 0.00 0.01 0.01 0.01 0.01 0.01 0.01 0.01 0.00 0.00 0.00 0.00 0.00 0.00 0.01 0.01 0.01 0.01 0.01 0.01
0.03 0.03 0.03 0.02 0.01 0.01 0.00 0.00 0.00 0.00 0.00 0.00 0.00 0.00 0.00 0.00 0.00 0.00 0.00 0.00 0.00 0.00 0.00 0.00 0.00 0.00 0.00 0.01 0.01 0.01 0.01 0.00 0.00 0.01 0.01 0.01 0.00 0.00
0.01 0.01 0.01 0.02 0.01 0.01 0.01 0.01 0.00 0.00 0.00 0.00 0.00 0.00 0.00 0.00 0.00 0.00 0.00 0.00 0.00 0.00 0.00 0.00 0.00 0.00 0.00 0.01 0.01 0.01 0.01 0.01 0.00 0.01 0.01 0.01 0.01 0.00
0.01 0.01 0.01 0.01 0.01 0.01 0.01 0.01 0.01 0.00 0.00 0.00 0.00 0.00 0.00 0.00 0.00 0.00 0.00 0.00 0.00 0.00 0.00 0.00 0.00 0.00 0.00 0.00 0.00 0.00 0.00 0.00 0.00 0.01 0.01 0.01 0.01 0.01
0.02 0.01 0.01 0.01 0.01 0.02 0.01 0.01 0.01 0.01 0.01 0.01 0.01 0.00 0.00 0.00 0.00 0.00 0.00 0.00 0.00 0.00 0.00 0.00 0.00 0.00 0.00 0.00 0.00 0.00 0.00 0.00 0.00 0.01 0.01 0.01 0.01 0.00
MSLP
1014.79 1014.84 1014.91 1014.99 1015.08 1015.16 1015.23 1015.29 1015.36 1015.44 1015.54 1015.68 1015.85 1016.04 1016.25 1016.46 1016.66 1016.85 1017.02 1017.19 1017.35 1017.52 1017.70 1017.90 1018.10 1018.30 1018.51 1018.70 1018.88 1019.06 1019.24 1019.45 1019.69 1019.96 1020.28 1020.64 1021.02 1021.42
1014.67 1014.66 1014.67 1014.70 1014.73 1014.77 1014.83 1014.90 1014.99 1015.12 1015.28 1015.49 1015.74 1016.01 1016.28 1016.56 1016.82 1017.05 1017.27 1017.47 1017.66 1017.85 1018.06 1018.28 1018.51 1018.74 1018.97 1019.18 1019.39 1019.59 1019.78 1019.99 1020.22 1020.48 1020.78 1021.10 1021.45 1021.80
1014.72 1014.65 1014.60 1014.55 1014.53 1014.53 1014.56 1014.62 1014.73 1014.90 1015.13 1015.41 1015.73 1016.08 1016.44 1016.78 1017.11 1017.40 1017.66 1017.90 1018.12 1018.33 1018.56 1018.79 1019.03 1019.27 1019.51 1019.73 1019.94 1020.14 1020.34 1020.53 1020.75 1020.99 1021.26 1021.55 1021.86 1022.17
1014.90 1014.79 1014.67 1014.57 1014.49 1014.44 1014.43 1014.49 1014.60 1014.80 1015.07 1015.41 1015.79 1016.22 1016.65 1017.07 1017.46 1017.81 1018.12 1018.39 1018.63 1018.85 1019.08 1019.31 1019.54 1019.77 1020.00 1020.22 1020.42 1020.61 1020.80 1020.98 1021.19 1021.41 1021.65 1021.92 1022.20 1022.47
1015.17 1015.03 1014.88 1014.72 1014.59 1014.50 1014.46 1014.48 1014.59 1014.79 1015.09 1015.46 1015.90 1016.38 1016.87 1017.35 1017.79 1018.18 1018.53 1018.82 1019.08 1019.30 1019.52 1019.73 1019.94 1020.15 1020.35 1020.55 1020.73 1020.91 1021.09 1021.27 1021.46 1021.67 1021.90 1022.16 1022.41 1022.67
1015.46 1015.32 1015.14 1014.97 1014.80 1014.67 1014.59 1014.59 1014.68 1014.86 1015.15 1015.53 1015.99 1016.50 1017.02 1017.54 1018.02 1018.44 1018.81 1019.12 1019.37 1019.59 1019.78 1019.97 1020.14 1020.32 1020.49 1020.66 1020.83 1021.00 1021.17 1021.35 1021.54 1021.75 1021.98 1022.23 1022.48 1022.73
1015.72 1015.59 1015.42 1015.25 1015.07 1014.92 1014.82 1014.78 1014.84 1014.99 1015.25 1015.61 1016.05 1016.55 1017.09 1017.61 1018.10 1018.53 1018.91 1019.22 1019.46 1019.66 1019.83 1019.97 1020.11 1020.26 1020.40 1020.54 1020.70 1020.86 1021.03 1021.22 1021.42 1021.64 1021.88 1022.13 1022.38 1022.62
1015.88 1015.79 1015.67 1015.52 1015.36 1015.22 1015.10 1015.03 1015.05 1015.16 1015.37 1015.68 1016.08 1016.55 1017.05 1017.55 1018.03 1018.46 1018.83 1019.12 1019.35 1019.53 1019.66 1019.78 1019.88 1019.99 1020.11 1020.23 1020.38 1020.54 1020.72 1020.91 1021.13 1021.36 1021.60 1021.85 1022.10 1022.34
1015.93 1015.91 1015.85 1015.76 1015.65 1015.52 1015.40 1015.32 1015.30 1015.35 1015.51 1015.76 1016.09 1016.50 1016.96 1017.42 1017.87 1018.27 1018.61 1018.89 1019.09 1019.24 1019.35 1019.44 1019.52 1019.60 1019.69 1019.81 1019.95 1020.11 1020.29 1020.50 1020.72 1020.96 1021.20 1021.44 1021.68 1021.90
1015.87 1015.94 1015.97 1015.95 1015.90 1015.82 1015.72 1015.63 1015.58 1015.59 1015.68 1015.85 1016.12 1016.46 1016.85 1017.27 1017.67 1018.03 1018.35 1018.60 1018.78 1018.91 1018.99 1019.05 1019.11 1019.17 1019.26 1019.36 1019.50 1019.66 1019.84 1020.04 1020.26 1020.48 1020.71 1020.93 1021.14 1021.33
1015.74 1015.90 1016.02 1016.10 1016.12 1016.09 1016.03 1015.95 1015.88 1015.85 1015.89 1016.00 1016.20 1016.47 1016.80 1017.16 1017.51 1017.84 1018.12 1018.34 1018.50 1018.61 1018.67 1018.72 1018.76 1018.81 1018.89 1018.98 1019.11 1019.26 1019.43 1019.62 1019.81 1020.01 1020.20 1020.38 1020.54 1020.68
1015.58 1015.83 1016.04 1016.21 1016.30 1016.34 1016.31 1016.24 1016.17 1016.12 1016.12 1016.19 1016.33 1016.55 1016.82 1017.12 1017.43 1017.73 1017.98 1018.17 1018.32 1018.41 1018.47 1018.50 1018.53 1018.58 1018.64 1018.72 1018.84 1018.97 1019.11 1019.27 1019.42 1019.57 1019.71 1019.84 1019.94 1020.03
1015.42 1015.74 1016.02 1016.26 1016.42 1016.51 1016.52 1016.48 1016.42 1016.37 1016.35 1016.40 1016.51 1016.69 1016.92 1017.18 1017.46 1017.72 1017.95 1018.13 1018.25 1018.34 1018.39 1018.42 1018.45 1018.48 1018.53 1018.60 1018.70 1018.80 1018.91 1019.01 1019.11 1019.21 1019.28 1019.35 1019.40 1019.43
1015.27 1015.62 1015.95 1016.23 1016.44 1016.57 1016.62 1016.62 1016.58 1016.55 1016.54 1016.58 1016.68 1016.85 1017.07 1017.31 1017.56 1017.80 1018.01 1018.17 1018.29 1018.37 1018.42 1018.45 1018.47 1018.51 1018.55 1018.60 1018.66 1018.73 1018.79 1018.84 1018.89 1018.91 1018.93 1018.94 1018.94 1018.93
1015.09 1015.46 1015.80 1016.09 1016.33 1016.48 1016.57 1016.60 1016.61 1016.61 1016.64 1016.71 1016.83 1017.00 1017.21 1017.45 1017.69 1017.92 1018.11 1018.27 1018.38 1018.46 1018.51 1018.54 1018.57 1018.59 1018.63 1018.66 1018.70 1018.73 1018.74 1018.74 1018.72 1018.70 1018.66 1018.62 1018.58 1018.55
1014.87 1015.21 1015.53 1015.82 1016.05 1016.23 1016.35 1016.42 1016.48 1016.54 1016.62 1016.73 1016.90 1017.09 1017.33 1017.57 1017.81 1018.03 1018.21 1018.36 1018.47 1018.54 1018.59 1018.63 1018.66 1018.69 1018.72 1018.73 1018.75 1018.74 1018.71 1018.67 1018.60 1018.53 1018.45 1018.38 1018.33 1018.30
1014.56 1014.85 1015.14 1015.40 1015.63 1015.81 1015.97 1016.09 1016.21 1016.34 1016.49 1016.67 1016.89 1017.13 1017.38 1017.63 1017.87 1018.08 1018.26 1018.39 1018.49 1018.56 1018.62 1018.66 1018.70 1018.72 1018.75 1018.77 1018.76 1018.73 1018.67 1018.59 1018.49 1018.39 1018.29 1018.21 1018.16 1018.15
1014.16 1014.40 1014.64 1014.86 1015.08 1015.28 1015.47 1015.66 1015.85 1016.06 1016.29 1016.54 1016.82 1017.10 1017.38 1017.64 1017.88 1018.07 1018.23 1018.35 1018.44 1018.50 1018.55 1018.60 1018.64 1018.68 1018.71 1018.72 1018.71 1018.66 1018.59 1018.49 1018.37 1018.25 1018.15 1018.07 1018.04 1018.05
1013.68 1013.87 1014.07 1014.28 1014.49 1014.72 1014.95 1015.20 1015.47 1015.76 1016.07 1016.40 1016.73 1017.04 1017.34 1017.61 1017.83 1018.01 1018.14 1018.23 1018.30 1018.36 1018.41 1018.46 1018.50 1018.55 1018.58 1018.60 1018.59 1018.54 1018.46 1018.35 1018.23 1018.11 1018.02 1017.95 1017.93 1017.97
1013.18 1013.34 1013.52 1013.72 1013.95 1014.21 1014.49 1014.81 1015.15 1015.52 1015.90 1016.28 1016.65 1017.00 1017.30 1017.55 1017.75 1017.90 1018.00 1018.07 1018.12 1018.16 1018.20 1018.24 1018.30 1018.35 1018.40 1018.42 1018.42 1018.38 1018.30 1018.20 1018.09 1017.97 1017.88 1017.83 1017.83 1017.87
1012.73 1012.88 1013.05 1013.27 1013.52 1013.82 1014.16 1014.53 1014.94 1015.36 1015.80 1016.22 1016.61 1016.97 1017.26 1017.49 1017.66 1017.77 1017.84 1017.88 1017.90 1017.92 1017.96 1018.00 1018.06 1018.13 1018.18 1018.22 1018.23 1018.20 1018.14 1018.04 1017.94 1017.84 1017.75 1017.71 1017.70 1017.74
1012.40 1012.55 1012.74 1012.98 1013.26 1013.60 1013.98 1014.40 1014.85 1015.31 1015.77 1016.21 1016.61 1016.95 1017.22 1017.42 1017.55 1017.63 1017.66 1017.67 1017.68 1017.69 1017.72 1017.77 1017.84 1017.91 1017.98 1018.03 1018.05 1018.04 1017.99 1017.91 1017.82 1017.72 1017.64 1017.59 1017.57 1017.59
1012.21 1012.39 1012.61 1012.87 1013.18 1013.55 1013.96 1014.40 1014.86 1015.34 1015.80 1016.22 1016.60 1016.91 1017.15 1017.32 1017.42 1017.47 1017.48 1017.47 1017.47 1017.48 1017.51 1017.57 1017.65 1017.73 1017.81 1017.88 1017.91 1017.92 1017.88 1017.82 1017.73 1017.64 1017.55 1017.48 1017.43 1017.41
Thickness
5729 5727 5724 5722 5720 5717 5714 5711 5704 5697 5692 5690 5689 5688 5686 5684 5682 5681 5679 5678 5678 5677 5675 5674 5672 5670 5669 5667 5665 5664 5662 5661 5660 5658 5657 5656 5655 5654
5726 5723 5721 5719 5717 5714 5712 5709 5705 5699 5691 5687 5684 5682 5680 5678 5675 5674 5672 5670 5669 5668 5667 5666 5664 5662 5660 5658 5657 5655 5653 5652 5650 5649 5648 5647 5645 5644
5723 5720 5717 5716 5713 5711 5708 5705 5701 5697 5689 5683 5680 5677 5674 5671 5669 5667 5665 5663 5661 5660 5659 5657 5655 5653 5651 5649 5647 5646 5645 5643 5641 5640 5638 5637 5635 5634
5719 5717 5714 5713 5710 5707 5705 5701 5697 5694 5688 5680 5675 5671 5668 5665 5663 5660 5657 5655 5653 5651 5649 5648 5646 5644 5642 5640 5638 5636 5635 5633 5632 5630 5628 5626 5625 5623
5717 5714 5711 5709 5706 5703 5700 5697 5693 5690 5685 5679 5671 5666 5663 5659 5656 5653 5651 5648 5646 5643 5641 5638 5637 5635 5633 5631 5629 5627 5625 5624 5622 5619 5617 5615 5614 5612
5714 5711 5709 5706 5703 5700 5696 5692 5688 5683 5678 5673 5667 5662 5658 5654 5651 5647 5644 5641 5638 5636 5633 5631 5629 5627 5624 5623 5621 5619 5616 5614 5611 5609 5607 5605 5603 5601
5711 5709 5706 5704 5701 5697 5693 5688 5684 5679 5673 5668 5663 5658 5653 5649 5646 5643 5639 5635 5632 5629 5627 5624 5621 5619 5616 5615 5613 5610 5608 5605 5602 5599 5597 5595 5592 5589
5707 5704 5702 5699 5696 5692 5689 5685 5681 5676 5670 5665 5659 5655 5650 5647 5642 5639 5634 5631 5628 5624 5621 5618 5615 5612 5610 5607 5605 5602 5599 5596 5593 5590 5587 5585 5582 5579
5704 5701 5698 5695 5691 5687 5683 5679 5675 5671 5668 5663 5657 5653 5648 5644 5639 5635 5630 5627 5624 5619 5615 5612 5608 5606 5603 5600 5597 5594 5591 5588 5585 5581 5578 5575 5571 5569
5701 5698 5694 5691 5687 5683 5678 5673 5669 5665 5662 5658 5654 5650 5645 5640 5636 5632 5627 5621 5616 5612 5609 5607 5603 5600 5597 5593 5590 5587 5584 5580 5577 5573 5570 5566 5563 5560
5696 5693 5690 5687 5683 5679 5674 5668 5663 5659 5655 5652 5648 5644 5639 5635 5631 5626 5621 5617 5612 5608 5603 5600 5597 5593 5589 5586 5583 5579 5576 5573 5569 5566 5562 5558 5554 5551
5691 5688 5685 5682 5678 5674 5669 5664 5658 5654 5649 5646 5641 5637 5633 5629 5624 5620 5617 5612 5607 5603 5598 5594 5590 5586 5583 5580 5575 5572 5568 5565 5561 5558 5554 5550 5547 5543
5686 5682 5679 5676 5672 5668 5664 5660 5654 5649 5644 5640 5635 5630 5626 5621 5617 5613 5609 5606 5602 5598 5593 5588 5584 5579 5576 5573 5569 5565 5561 5557 5554 5550 5547 5544 5540 5536
5682 5678 5674 5670 5666 5662 5658 5653 5648 5643 5638 5633 5629 5624 5619 5615 5610 5606 5602 5598 5594 5591 5587 5582 5578 5574 5570 5566 5563 5559 5554 5550 5547 5544 5540 5537 5533 5530
5678 5673 5669 5664 5659 5655 5650 5646 5641 5636 5632 5627 5622 5617 5612 5608 5603 5599 5595 5591 5587 5583 5580 5575 5572 5567 5563 5560 5557 5552 5548 5545 5541 5537 5534 5530 5527 5524
5671 5665 5660 5656 5653 5648 5644 5639 5635 5630 5626 5621 5616 5610 5605 5601 5597 5592 5588 5585 5581 5577 5573 5569 5565 5561 5557 5553 5549 5545 5541 5538 5535 5531 5527 5524 5521 5518
5664 5658 5653 5649 5645 5641 5637 5632 5628 5624 5619 5613 5608 5604 5600 5596 5591 5586 5582 5578 5574 5570 5567 5562 5557 5553 5549 5545 5542 5539 5535 5532 5529 5525 5522 5520 5517 5514
5659 5653 5649 5645 5640 5636 5631 5626 5621 5617 5613 5608 5603 5598 5594 5590 5585 5580 5576 5572 5568 5564 5560 5556 5551 5548 5544 5539 5534 5533 5530 5527 5523 5519 5516 5514 5513 5509
5652 5648 5644 5640 5635 5631 5626 5621 5616 5612 5607 5602 5598 5593 5589 5584 5580 5575 5571 5566 5562 5558 5553 5548 5544 5542 5539 5537 5533 5526 5523 5521 5517 5514 5510 5507 5506 5504
5647 5643 5639 5634 5630 5625 5621 5615 5611 5606 5601 5597 5592 5588 5583 5579 5574 5570 5565 5561 5556 5552 5547 5542 5538 5535 5532 5530 5526 5522 5517 5514 5511 5509 5506 5502 5499 5496
5642 5638 5634 5629 5624 5620 5615 5610 5605 5601 5596 5592 5587 5582 5577 5573 5569 5564 5559 5554 5550 5546 5542 5538 5533 5528 5524 5521 5519 5518 5514 5509 5505 5502 5500 5497 5495 5493
5637 5632 5628 5624 5620 5615 5609 5604 5599 5595 5591 5587 5582 5577 5572 5568 5563 5559 5554 5550 5545 5541 5537 5533 5527 5523 5519 5517 5515 5513 5509 5505 5501 5496 5492 5489 5487 5486
5631 5627 5623 5619 5614 5609 5604 5599 5594 5590 5585 5581 5577 5572 5567 5562 5558 5553 5549 5545 5540 5535 5531 5527 5523 5518 5515 5511 5508 5506 5503 5499 5496 5493 5489 5484 5480 5477